Location: Proctor
(47.8934°N, 114.3048°W)
Time: 22:19:05
(UTC+00:00)

Tiros 1 despin weight - Pass Details

Date: 27 June 2024
Orbit: 576 x 620 km, 48.2° (Epoch: 19 July)

Event Time Altitude Azimuth Distance (km) Brightness Sun altitude
Rises 21:51:18 0° 282° (WNW) 2,896 ? 54.2°
Reaches altitude 10° 21:53:37 10° 280° (W) 1,990 ? 53.9°
Maximum altitude 21:58:11 73° 197° (SSW) 650 ? 53.2°
Drops below altitude 10° 22:02:44 10° 113° (ESE) 1,977 ? 52.6°
Sets 22:05:02 0° 111° (ESE) 2,876 ? 52.2°
